FW7144 Weather Reports


time (UTC)temp
F
wind
direction
speed
knots
gust
knots
rain 1hr
in
rain 24hr
in
rain mn
in
humidity
%
barometer
mb
20260510181405 78 34 1.7 6.1 0.00 0.00 0.00 30 1021.5
20260510180806 80 3 0.0 7.0 0.00 0.00 0.00 32 1021.5
20260510180206 80 324 1.7 3.5 0.00 0.00 0.00 30 1021.5
20260510175605 78 343 0.0 6.1 0.00 0.00 0.00 32 1021.6
20260510175006 76 280 0.0 4.3 0.00 0.00 0.00 31 1021.8
20260510174406 76 207 0.0 3.5 0.00 0.00 0.00 32 1021.8
20260510173806 76 23 0.0 7.0 0.00 0.00 0.00 34 1021.8
20260510173205 78 206 3.5 5.2 0.00 0.00 0.00 34 1021.8
20260510172606 78 139 1.7 8.7 0.00 0.00 0.00 38 1021.9
20260510172005 77 128 1.7 7.8 0.00 0.00 0.00 34 1022.0
20260510171405 76 283 0.0 6.1 0.00 0.00 0.00 35 1022.1
20260510170805 75 198 3.5 7.0 0.00 0.00 0.00 37 1022.2
20260510170205 76 269 2.6 8.7 0.00 0.00 0.00 38 1022.2
20260510165606 77 268 3.5 6.1 0.00 0.00 0.00 35 1022.2
20260510165006 76 8 0.0 7.0 0.00 0.00 0.00 39 1022.3
20260510164405 76 251 0.0 4.3 0.00 0.00 0.00 40 1022.3
20260510163806 74 260 0.0 4.3 0.00 0.00 0.00 36 1022.4
20260510163205 74 276 0.0 6.1 0.00 0.00 0.00 46 1022.5
20260510162606 75 261 0.0 5.2 0.00 0.00 0.00 44 1022.4
20260510162006 74 354 0.0 6.1 0.00 0.00 0.00 48 1022.5
20260510161406 72 277 0.0 7.8 0.00 0.00 0.00 53 1022.5
20260510160805 73 264 1.7 6.1 0.00 0.00 0.00 53 1022.5
20260510160205 72 93 1.7 7.0 0.00 0.00 0.00 53 1022.6
20260510155606 73 321 1.7 7.0 0.00 0.00 0.00 55 1022.6
20260510155006 73 333 2.6 7.0 0.00 0.00 0.00 54 1022.6
20260510154406 71 258 1.7 7.0 0.00 0.00 0.00 56 1022.6
20260510153806 71 354 0.0 3.5 0.00 0.00 0.00 58 1022.5
20260510153206 70 270 0.0 3.5 0.00 0.00 0.00 58 1022.5
20260510152605 71 234 0.0 5.2 0.00 0.00 0.00 59 1022.5
20260510152005 71 171 0.0 1.7 0.00 0.00 0.00 60 1022.5
20260510151405 70 49 0.0 4.3 0.00 0.00 0.00 58 1022.5
20260510150806 69 294 0.0 5.2 0.00 0.00 0.00 60 1022.6
20260510150205 69 293 0.0 5.2 0.00 0.00 0.00 61 1022.7
20260510145605 69 251 0.0 3.5 0.00 0.00 0.00 60 1022.7
20260510145006 68 99 0.0 3.5 0.00 0.00 0.00 55 1022.7
20260510144406 67 165 0.0 1.7 0.00 0.00 0.00 54 1022.7
20260510143806 66 116 0.0 1.7 0.00 0.00 0.00 55 1022.7
20260510143206 66 114 1.7 2.6 0.00 0.00 0.00 54 1022.8
20260510142605 66 19 0.0 2.6 0.00 0.00 0.00 55 1022.9
20260510142005 64 67 0.0 3.5 0.00 0.00 0.00 56 1022.8
20260510141405 64 136 0.0 1.7 0.00 0.00 0.00 56 1022.8
20260510140805 63 291 0.0 3.5 0.00 0.00 0.00 58 1022.8
20260510140206 63 84 0.0 1.7 0.00 0.00 0.00 58 1022.6
20260510135606 62 84 0.0 2.6 0.00 0.00 0.00 58 1022.7
20260510135006 62 66 0.0 2.6 0.00 0.00 0.00 58 1022.6
20260510134405 61 89 1.7 3.5 0.00 0.00 0.00 59 1022.6
20260510133805 60 80 0.0 3.5 0.00 0.00 0.00 61 1022.5
20260510133205 59 106 1.7 2.6 0.00 0.00 0.00 62 1022.6
20260510132630 58 76 0.0 2.6 0.00 0.00 0.00 63 1022.5
20260510132006 57 106 0.0 3.5 0.00 0.00 0.00 64 1022.6
20260510131431 57 66 1.7 2.6 0.00 0.00 0.00 65 1022.5
20260510130843 56 81 0.0 2.6 0.00 0.00 0.00 65 1022.5
20260510125605 55 113 1.7 5.2 0.00 0.00 0.00 67 1022.3
20260510125005 54 107 3.5 5.2 0.00 0.00 0.00 66 1022.3
20260510124406 54 87 1.7 2.6 0.00 0.00 0.00 65 1022.2
20260510123806 54 91 1.7 4.3 0.00 0.00 0.00 66 1022.2
20260510123207 53 81 0.9 2.6 0.00 0.00 0.00 68 1022.1
20260510122606 52 57 0.0 2.6 0.00 0.00 0.00 73 1022.0
20260510122006 52 97 0.0 5.2 0.00 0.00 0.00 73 1022.0
20260510121406 51 119 1.7 3.5 0.00 0.00 0.00 73 1021.9
20260510120806 50 90 0.9 2.6 0.00 0.00 0.00 73 1021.9
20260510120206 50 97 0.0 3.5 0.00 0.00 0.00 73 1021.9
20260510115605 49 75 0.0 4.3 0.00 0.00 0.00 72 1021.8
20260510115006 49 100 2.6 3.5 0.00 0.00 0.00 73 1021.8
20260510114405 49 85 1.7 5.2 0.00 0.00 0.00 72 1021.7
20260510113805 49 85 2.6 4.3 0.00 0.00 0.00 72 1021.7
20260510113230 49 102 2.6 6.1 0.00 0.00 0.00 71 1021.7
20260510112606 49 103 3.5 5.2 0.00 0.00 0.00 70 1021.7
20260510112007 49 106 3.5 5.2 0.00 0.00 0.00 71 1021.7
20260510111405 48 120 1.7 3.5 0.00 0.00 0.00 73 1021.8
20260510110806 47 113 1.7 2.6 0.00 0.00 0.00 74 1021.8
20260510110206 47 71 0.0 2.6 0.00 0.00 0.00 70 1021.7
20260510105606 47 61 1.7 3.5 0.00 0.00 0.00 68 1021.7
20260510105006 48 96 1.7 2.6 0.00 0.00 0.00 65 1021.6
20260510104418 49 62 1.7 3.5 0.00 0.00 0.00 64 1021.6
20260510103806 49 80 1.7 3.5 0.00 0.00 0.00 63 1021.5
20260510103205 49 91 1.7 3.5 0.00 0.00 0.00 67 1021.5
20260510102605 47 125 1.7 1.7 0.00 0.00 0.00 69 1021.5
20260510102006 46 111 0.0 1.7 0.00 0.00 0.00 68 1021.5
20260510101406 46 118 0.0 2.6 0.00 0.00 0.00 67 1021.4
20260510100806 46 71 0.0 2.6 0.00 0.00 0.00 66 1021.3
20260510100206 47 85 0.9 2.6 0.00 0.00 0.00 66 1021.3
20260510095605 47 92 1.7 0.0 0.00 0.00 0.00 67 1021.3
20260510095005 46 79 0.0 2.6 0.00 0.00 0.00 69 1021.3
20260510094406 47 131 0.9 3.5 0.00 0.00 0.00 69 1021.3
20260510093805 47 115 0.9 1.7 0.00 0.00 0.00 65 1021.3
20260510093206 47 103 0.0 2.6 0.00 0.00 0.00 65 1021.2
20260510092606 47 104 1.7 3.5 0.00 0.00 0.00 66 1021.2
20260510092005 47 111 2.6 5.2 0.00 0.00 0.00 64 1021.2
20260510091406 47 133 1.7 4.3 0.00 0.00 0.00 62 1021.2
20260510090806 47 97 1.7 2.6 0.00 0.00 0.00 63 1021.1
20260510090205 47 76 0.0 2.6 0.00 0.00 0.00 62 1021.2
20260510085606 47 37 0.0 2.6 0.00 0.00 0.00 63 1021.1
20260510085006 48 68 0.9 3.5 0.00 0.00 0.00 63 1021.1
20260510084405 48 99 2.6 5.2 0.00 0.00 0.00 63 1021.1
20260510083805 49 99 3.5 5.2 0.00 0.00 0.00 58 1021.1
20260510083206 51 103 2.6 5.2 0.00 0.00 0.00 57 1021.2
20260510082605 50 83 2.6 5.2 0.00 0.00 0.00 60 1021.2
20260510082005 48 95 3.5 2.6 0.00 0.00 0.00 64 1021.1
20260510081405 48 81 0.0 2.6 0.00 0.00 0.00 65 1021.1
20260510080806 49 107 1.7 3.5 0.00 0.00 0.00 62 1021.0
20260510080218 50 110 1.7 3.5 0.00 0.00 0.00 61 1021.1
20260510075605 50 134 0.0 3.5 0.00 0.00 0.00 62 1021.0
20260510075006 49 153 1.7 2.6 0.00 0.00 0.00 66 1021.1
20260510074405 48 121 0.0 1.7 0.00 0.00 0.00 70 1021.0
20260510073805 48 108 0.0 1.7 0.00 0.00 0.00 69 1021.0
20260510073205 49 117 1.7 4.3 0.00 0.00 0.00 68 1021.0
20260510072607 48 117 1.7 1.7 0.00 0.00 0.00 66 1021.0
20260510072006 48 107 0.0 1.7 0.00 0.00 0.00 65 1021.0
20260510071405 48 70 0.0 0.0 0.00 0.00 0.00 63 1020.9
20260510070806 48 60 0.0 0.0 0.00 0.00 0.00 62 1020.9
20260510070205 48 22 0.0 1.7 0.00 0.00 0.00 63 1020.9
20260510065605 49 44 0.0 2.6 0.00 0.00 0.00 62 1020.8
20260510065006 50 48 0.0 2.6 0.00 0.00 0.00 63 1020.8
20260510064405 48 75 0.0 3.5 0.00 0.00 0.00 62 1020.8
20260510063806 48 114 1.7 2.6 0.00 0.00 0.00 59 1020.8
20260510063205 50 272 0.0 4.3 0.00 0.00 0.00 64 1020.9
20260510062606 50 264 0.9 2.6 0.00 0.00 0.00 63 1020.9
20260510062006 51 304 0.0 2.6 0.00 0.00 0.00 60 1020.8
20260510061406 51 305 0.0 0.0 0.00 0.00 0.00 58 1020.8
20260510060806 52 75 0.0 0.0 0.00 0.00 0.00 56 1020.7
20260510060205 52 121 0.0 1.7 0.00 0.00 0.00 57 1020.7
20260510055606 52 123 0.0 2.6 0.00 0.00 0.00 57 1020.8
20260510055006 52 308 0.0 2.6 0.00 0.00 0.00 56 1020.8
20260510054406 53 92 1.7 3.5 0.00 0.00 0.00 51 1020.7
20260510053805 54 39 0.0 5.2 0.00 0.00 0.00 47 1020.7
20260510053218 54 75 2.6 5.2 0.00 0.00 0.00 44 1020.7
20260510052606 55 99 2.6 5.2 0.00 0.00 0.00 43 1020.7
20260510052006 55 51 1.7 3.5 0.00 0.00 0.00 44 1020.7
20260510051406 56 102 3.5 3.5 0.00 0.00 0.00 42 1020.8
20260510050806 56 84 0.0 1.7 0.00 0.00 0.00 43 1020.9
20260510050205 56 53 0.0 1.7 0.00 0.00 0.00 42 1020.9
20260510045631 56 89 0.0 1.7 0.00 0.00 0.00 41 1020.8
20260510045031 56 146 0.0 2.6 0.00 0.00 0.00 40 1020.8
20260510044419 56 53 0.0 1.7 0.00 0.00 0.00 45 1020.8
20260510043806 57 46 0.0 2.6 0.00 0.00 0.00 44 1020.8
20260510043205 59 57 0.9 0.0 0.00 0.00 0.00 48 1020.8
20260510042618 59 144 0.0 2.6 0.00 0.00 0.00 50 1020.9
20260510042006 58 96 0.0 1.7 0.00 0.00 0.00 49 1020.9
20260510041405 58 332 0.0 2.6 0.00 0.00 0.00 46 1020.9
20260510040806 59 289 0.0 2.6 0.00 0.00 0.00 46 1020.7
20260510040206 59 148 0.0 2.6 0.00 0.00 0.00 44 1020.6
20260510035606 59 112 0.0 1.7 0.00 0.00 0.00 44 1020.6
20260510035005 58 102 0.0 3.5 0.00 0.00 0.00 41 1020.6
20260510034430 58 84 0.9 3.5 0.00 0.00 0.00 40 1020.6
20260510033805 57 286 0.0 0.0 0.00 0.00 0.00 44 1020.6
20260510033206 58 286 0.0 0.0 0.00 0.00 0.00 44 1020.5
20260510032630 59 123 0.0 0.0 0.00 0.00 0.00 42 1020.5
20260510032018 61 123 0.0 3.5 0.00 0.00 0.00 41 1020.4
20260510031405 62 110 1.7 3.5 0.00 0.00 0.00 37 1020.4
20260510030806 62 119 2.6 6.1 0.00 0.00 0.00 37 1020.3
20260510030205 62 120 2.6 3.5 0.00 0.00 0.00 36 1020.2
20260510025606 63 94 1.7 3.5 0.00 0.00 0.00 31 1020.2
20260510025007 63 79 2.6 5.2 0.00 0.00 0.00 32 1020.2
20260510024406 64 73 3.5 3.5 0.00 0.00 0.00 34 1020.2
20260510023806 64 54 0.0 4.3 0.00 0.00 0.00 30 1020.1
20260510023207 64 68 3.5 4.3 0.00 0.00 0.00 28 1020.0
20260510022606 64 77 2.6 5.2 0.00 0.00 0.00 25 1020.0
20260510022006 64 60 3.5 5.2 0.00 0.00 0.00 24 1020.0
20260510021406 64 63 0.9 5.2 0.00 0.00 0.00 25 1019.9
20260510020805 64 67 2.6 4.3 0.00 0.00 0.00 25 1019.8
20260510020206 64 55 2.6 3.5 0.00 0.00 0.00 25 1019.6
20260510015606 65 70 0.0 5.2 0.00 0.00 0.00 26 1019.5
20260510015043 67 48 1.7 5.2 0.00 0.00 0.00 24 1019.4
20260510014405 68 68 2.6 7.0 0.00 0.00 0.00 23 1019.3
20260510013805 71 84 5.2 7.8 0.00 0.00 0.00 19 1019.2
20260510013205 71 78 4.3 7.0 0.00 0.00 0.00 19 1019.1
20260510012630 72 93 3.5 7.8 0.00 0.00 0.00 19 1019.0
20260510012006 73 92 5.2 8.7 0.00 0.00 0.00 19 1018.9
20260510011443 73 83 4.3 8.7 0.00 0.00 0.00 19 1018.8
20260510010806 75 88 6.1 11.3 0.00 0.00 0.00 17 1018.7
20260510010206 75 74 4.3 10.4 0.00 0.00 0.00 17 1018.7
20260510005606 76 86 5.2 11.3 0.00 0.00 0.00 17 1018.7
20260510005006 77 120 7.0 11.3 0.00 0.00 0.00 17 1018.6
20260510004406 77 93 4.3 12.2 0.00 0.00 0.00 17 1018.5
20260510003806 78 75 7.0 13.0 0.00 0.00 0.00 17 1018.5
20260510003206 78 85 7.8 13.0 0.00 0.00 0.00 18 1018.4
20260510002605 78 76 5.2 12.2 0.00 0.00 0.00 18 1018.4
20260510002005 78 75 6.1 13.9 0.00 0.00 0.00 19 1018.3
20260510001405 79 80 7.8 14.8 0.00 0.00 0.00 19 1018.3
20260510000830 80 83 7.0 14.8 0.00 0.00 0.00 18 1018.2
20260510000205 80 88 6.1 13.9 0.00 0.00 0.00 18 1018.1
20260509235606 80 75 2.6 13.0 0.00 0.00 0.00 19 1018.2
20260509235005 80 26 3.5 9.6 0.00 0.00 0.00 20 1018.1
20260509234405 81 75 5.2 10.4 0.00 0.00 0.00 20 1018.0
20260509233805 81 71 7.0 13.9 0.00 0.00 0.00 19 1018.0
20260509233231 81 100 3.5 11.3 0.00 0.00 0.00 20 1018.1
20260509232630 81 89 6.1 14.8 0.00 0.00 0.00 19 1018.0
20260509232006 80 76 5.2 13.9 0.00 0.00 0.00 21 1018.0
20260509231406 80 82 5.2 13.0 0.00 0.00 0.00 22 1017.9
20260509230805 81 68 2.6 7.8 0.00 0.00 0.00 21 1018.0
20260509230205 81 57 5.2 14.8 0.00 0.00 0.00 22 1018.0
20260509225606 80 79 8.7 15.6 0.00 0.00 0.00 22 1017.9
20260509225005 81 77 7.8 14.8 0.00 0.00 0.00 22 1017.9
20260509224406 81 92 7.8 17.4 0.00 0.00 0.00 23 1017.8
20260509223805 82 89 9.6 15.6 0.00 0.00 0.00 23 1017.8
20260509223206 82 96 7.0 16.5 0.00 0.00 0.00 23 1017.8
20260509222605 82 78 7.8 12.2 0.00 0.00 0.00 24 1017.8
20260509222043 83 62 4.3 13.9 0.00 0.00 0.00 24 1017.9
20260509221418 82 79 7.8 15.6 0.00 0.00 0.00 25 1017.9
20260509220831 80 116 7.8 13.0 0.00 0.00 0.00 25 1017.8
20260509220206 79 178 1.7 14.8 0.00 0.00 0.00 24 1017.9
20260509215606 81 123 5.2 11.3 0.00 0.00 0.00 24 1018.0
20260509215017 80 153 4.3 11.3 0.00 0.00 0.00 24 1018.1
20260509214405 80 132 6.1 13.9 0.00 0.00 0.00 23 1018.1
20260509213805 79 99 1.7 8.7 0.00 0.00 0.00 23 1018.2
20260509213218 79 115 6.1 12.2 0.00 0.00 0.00 22 1018.2
20260509212605 80 117 5.2 12.2 0.00 0.00 0.00 22 1018.2
20260509212006 79 150 3.5 9.6 0.00 0.00 0.00 22 1018.3
20260509211406 79 56 3.5 10.4 0.00 0.00 0.00 23 1018.4
20260509210805 79 104 6.1 13.9 0.00 0.00 0.00 24 1018.4
20260509210205 79 122 4.3 12.2 0.00 0.00 0.00 25 1018.4
20260509205606 79 105 0.0 13.0 0.00 0.00 0.00 27 1018.5
20260509205005 79 69 7.8 11.3 0.00 0.00 0.00 26 1018.5
20260509204418 80 93 2.6 11.3 0.00 0.00 0.00 27 1018.6
20260509203805 80 75 3.5 9.6 0.00 0.00 0.00 23 1018.7
20260509203205 80 332 0.0 7.0 0.00 0.00 0.00 24 1018.8
20260509202605 80 103 0.0 7.8 0.00 0.00 0.00 25 1018.8
20260509202018 80 48 0.0 13.9 0.00 0.00 0.00 25 1018.9
20260509201405 81 49 0.0 11.3 0.00 0.00 0.00 23 1018.9
20260509200806 80 109 2.6 13.9 0.00 0.00 0.00 24 1019.0
20260509200206 80 72 7.8 14.8 0.00 0.00 0.00 24 1019.1
20260509195605 80 90 2.6 9.6 0.00 0.00 0.00 24 1019.0
20260509195005 80 117 3.5 7.8 0.00 0.00 0.00 25 1019.0
20260509194405 80 81 3.5 8.7 0.00 0.00 0.00 24 1019.1
20260509193806 81 98 1.7 6.1 0.00 0.00 0.00 23 1019.1
20260509193231 80 349 0.0 12.2 0.00 0.00 0.00 24 1019.2
20260509192606 80 83 4.3 11.3 0.00 0.00 0.00 23 1019.1
20260509192006 80 83 2.6 12.2 0.00 0.00 0.00 24 1019.2
20260509191406 79 119 7.8 12.2 0.00 0.00 0.00 24 1019.2
20260509190805 79 25 0.0 9.6 0.00 0.00 0.00 25 1019.3
20260509190256 80 73 2.6 13.9 0.00 0.00 0.00 25 1019.3
20260509185605 79 68 3.5 6.1 0.00 0.00 0.00 24 1019.2
20260509185030 80 100 1.7 9.6 0.00 0.00 0.00 25 1019.4
20260509184430 80 83 4.3 10.4 0.00 0.00 0.00 24 1019.4
20260509183805 81 59 1.7 9.6 0.00 0.00 0.00 25 1019.5
20260509183205 81 311 0.0 12.2 0.00 0.00 0.00 25 1019.5
20260509182606 78 61 3.5 13.0 0.00 0.00 0.00 23 1019.7
20260509182006 79 135 3.5 13.9 0.00 0.00 0.00 22 1019.7